Regional Weather Roundup
Issued by NWS

Home | Current Version | Previous Version | Text Only | Print | Product List | Glossary Off
Versions: 1 2 3 4 5 6 7 8 9 10 11 12 13 14 15 16 17 18 19 20 21 22 23 24 25 26 27 28 29 30 31 32 33 34 35 36 37 38 39 40 41 42 43 44 45 46 47 48 49 50

000
ASUS45 KBOU 221307
RWRCO

WEATHER ROUNDUP FOR COLORADO
NATIONAL WEATHER SERVICE DENVER/BOULDER CO
700 AM MDT TUE JUL 22 2014

NOTE: "FAIR" INDICATES FEW OR NO CLOUDS BELOW 12000 FEET WITH NO
SIGNIFICANT WEATHER AND/OR OBSTRUCTIONS TO VISIBILITY.

COZ001>005-013-030-031-221400-
...NORTHWEST COLORADO...

CITY           SKY/WX    TMP DP  RH WIND       PRES   REMARKS
CRAIG          CLEAR     42  42 100 W3        30.38R
HAYDEN         SUNNY     55  36  47 E10       30.40R
MEEKER         CLEAR     53  33  46 E7        30.40R
MOUNT WERNER   NOT AVBL
STEAMBOAT SPGS SUNNY     49  39  68 CALM      30.43R
WALDEN         SUNNY     48  36  61 E3        30.51R
$$

COZ006>008-011-221400-
...WEST CENTRAL VALLEYS...

CITY           SKY/WX    TMP DP  RH WIND       PRES   REMARKS
GRAND JUNCTION CLEAR     63  29  27 SE12      30.27R
MONTROSE       CLEAR     63  35  35 SE6       30.36R
EAGLE          SUNNY     52  39  62 CALM      30.48R
RIFLE          CLEAR     56  38  50 CALM      30.35R
DELTA          CLEAR     63  33  32 NE5       30.32R
NUCLA          CLEAR     59  30  33 E5        30.39R
$$

COZ017>023-064>068-221400-
...SOUTHWEST COLORADO...

CITY           SKY/WX    TMP DP  RH WIND       PRES   REMARKS
DURANGO        CLEAR     56  35  45 CALM      30.39R
CORTEZ         CLEAR     52  36  54 E5        30.34R
PAGOSA SPRINGS CLEAR     55  42  60 CALM      30.48R
TELLURIDE      CLEAR     54  30  40 SE5       30.59S
WOLF CREEK PAS NOT AVBL
$$

COZ009-010-012-014-032>034-037-058>063-221400-
...CENTRAL COLORADO...

CITY           SKY/WX    TMP DP  RH WIND       PRES   REMARKS
ASPEN          SUNNY     52  34  50 SW8       30.51R
BUENA VISTA    SUNNY     54  34  47 NW13      30.52S
COPPER MTN     SUNNY     59  23  25 S8        30.83R
BERTHOUD PASS  FAIR      46  34  61 W13       30.87R
COTTONWOOD PAS SUNNY     63  21  20 W8        30.66R
GUNNISON       CLEAR     45  36  70 CALM      30.58R
KREMMLING      SUNNY     45  37  76 CALM      30.52S
LEADVILLE      SUNNY     44  33  65 N5        30.66R
MONARCH PASS   SUNNY     54  23  30 NW5       30.92S
SALIDA         SUNNY     57  37  47 NW6       30.57R
SUNLIGHT       CLEAR     59  21  23 CALM      30.74R
WILKERSON PASS SUNNY     57  27  30 MISG      30.79R
$$

COZ069>075-221400-
...SAN LUIS VALLEY/SANGRE DE CRISTO MOUNTAINS...

CITY           SKY/WX    TMP DP  RH WIND       PRES   REMARKS
ALAMOSA        MOSUNNY   50  46  86 CALM      30.48R
LA VETA PASS   SUNNY     57  37  47 W3        30.65S
SAGUACHE       SUNNY     54  36  50 NW13      30.50R
$$

COZ035-036-038>040-221400-
...NORTHERN COLORADO FRONT RANGE...

CITY           SKY/WX    TMP DP  RH WIND       PRES   REMARKS
DENVER INTL AP MOSUNNY   69  45  41 W8        30.27R
DMNS CITY PARK   N/A     67  49  53 W5        30.28R
AURORA         MOSUNNY   64  48  54 NW6       30.31R
FRONT RANGE AP NOT AVBL
ERIE MUNI ARPT SUNNY     63  49  60 CALM      30.28R
BOULDER MUN AP SUNNY     70  45  40 SE3       30.29R
CENTENNIAL     SUNNY     66  46  48 SW10      30.31R
BROOMFIELD     MOSUNNY   68  45  42 NW10      30.31R
FORT COLLINS   SUNNY     64  50  59 CALM      30.29R
LONGMONT       SUNNY     66  50  57 CALM      30.29R
$$

COZ041-046-047-076>085-087-088-221400-
...PIKES PEAK/PALMER DIVIDE AND SOUTHERN FOOTHILLS...

CITY           SKY/WX    TMP DP  RH WIND       PRES   REMARKS
COLO. SPRINGS  SUNNY     66  51  58 N7        30.33R
A. F. ACADEMY  SUNNY     57  46  67 N9        30.36R
ELLICOTT       SUNNY     66  52  60 N6        30.30R
FALCON         SUNNY     67  46  46 NW5       30.38R
FORT CARSON    SUNNY     65  46  49 N13       30.28R
LIMON          SUNNY     66  52  60 NW3       30.25R
MONUMENT HILL  SUNNY     61  46  59 S5        30.39R
TRINIDAD       SUNNY     69  53  56 NW10      30.28R
$$

COZ042>045-048>051-090-091-221400-
...NORTHEAST COLORADO...

CITY           SKY/WX    TMP DP  RH WIND       PRES   REMARKS
GREELEY ARPT   SUNNY     63  50  63 W6        30.25R
AKRON          SUNNY     72  52  49 NE12G22   30.25R
BURLINGTON     SUNNY     69  58  67 W12       30.15R
WRAY             N/A     75  59  57 NE8       30.16R
STERLING       SUNNY     73  54  49 NE5       30.19R
HOLYOKE        SUNNY     73  57  56 E3        30.18R
FORT MORGAN    SUNNY     69  50  50 N3        30.21R
$$

COZ086-089-092>099-221400-
...SOUTHEAST COLORADO...

CITY           SKY/WX    TMP DP  RH WIND       PRES   REMARKS
PUEBLO         SUNNY     66  52  60 NW7       30.21R
LA JUNTA       SUNNY     67  58  72 SW9       30.16R
LAMAR          SUNNY     71  61  70 E3        30.12R
SPRINGFIELD      N/A     67  61  81 SW5       30.16R
$$


USA.gov is the U.S. government's official web portal to all federal, state and local government web resources and services.